Regional Weather Roundup
Issued by NWS

Home | Current Version | Previous Version | Graphics & Text | Print | Product List | Glossary On
Versions: 1 2 3 4 5 6 7 8 9 10 11 12 13 14 15 16 17 18 19 20 21 22 23 24 25 26 27 28 29 30 31 32 33 34 35 36 37 38 39 40 41 42 43 44 45 46 47 48 49 50
774
ASUS43 KBIS 300902
RWRND

NORTH DAKOTA REGIONAL WEATHER ROUNDUP
NATIONAL WEATHER SERVICE BISMARCK ND
400 AM CDT SUN APR 30 2017

NOTE: "FAIR" INDICATES FEW OR NO CLOUDS BELOW 12,000 FEET WITH NO
SIGNIFICANT WEATHER AND/OR OBSTRUCTIONS TO VISIBILITY.


NDZ001>003-009>011-017-301000-
NORTHWEST NORTH DAKOTA

CITY           SKY/WX    TMP DP  RH WIND       PRES   REMARKS
WILLISTON      FAIR      36  29  75 S3        30.03F
MINOT          FAIR      46  22  38 S13       30.07F
MINOT AFB      CLEAR     44  23  44 S13       30.05F
$$

NDZ018>021-031>035-040>046-301000-
SOUTHWEST NORTH DAKOTA

CITY           SKY/WX    TMP DP  RH WIND       PRES   REMARKS
BISMARCK       FAIR      34  24  67 E5        30.14F
DICKINSON      FAIR      30  19  63 S9        30.07F
GARRISON         N/A     38  25  59 S5        30.10F
HETTINGER ARPT CLEAR     31  20  63 CALM      30.12F
$$

NDZ004>008-012>016-024-026-027-054-301000-
NORTHEAST NORTH DAKOTA

CITY           SKY/WX    TMP DP  RH WIND       PRES   REMARKS
GRAND FORKS    PTCLDY    42  33  70 SE6       30.15F
GRND FRKS AFB  PTCLDY    37  33  82 CALM      30.15F
DEVILS LAKE    FAIR      42  27  55 S7        30.15F
$$

NDZ022-023-025-028>030-036>039-047>053-301000-
SOUTHEAST NORTH DAKOTA

CITY           SKY/WX    TMP DP  RH WIND       PRES   REMARKS
FARGO          MOCLDY    41  29  62 E8        30.15F
JAMESTOWN      FAIR      37  29  72 W3        30.13F
$$





USA.gov is the U.S. government's official web portal to all federal, state and local government web resources and services.